HAZ2895 ZSHC-ZBHH

Flight info

Callsign HAZ2895
Flight time 2h 5m
Altitude 34100
Route NIVIK5E NIVIK W135 DOGVI W545 VEMEX W163 HFE B208 TODAM TODAM9YA
Aircraft A320/M-SDE3FGHIRWY/LB1

Departure

Time 2026-05-06 13:17
Airport Hangzhou Xiaoshan International Airport (ZSHC)

Arrival

Time 2026-05-06 15:22
Airport Hohhot Baita International Airport (ZBHH)
Time Latitude Longitude Altitude Speed Heading
2026-05-06 12:54 30.24121 120.42803 32 ft 0 kts 234°
2026-05-06 13:02 30.24121 120.42804 32 ft 0 kts 234°
2026-05-06 13:02 30.24132 120.42821 32 ft 3 kts 234°
2026-05-06 13:03 30.24143 120.42840 32 ft 3 kts 249°
2026-05-06 13:03 30.24146 120.42860 32 ft 3 kts 301°
2026-05-06 13:03 30.24132 120.42877 29 ft 3 kts 329°
2026-05-06 13:03 30.24119 120.42885 31 ft 0 kts 333°
2026-05-06 13:06 30.24139 120.42873 31 ft 7 kts 333°
2026-05-06 13:06 30.24207 120.42833 31 ft 15 kts 333°
2026-05-06 13:06 30.24302 120.42794 32 ft 12 kts 32°
2026-05-06 13:06 30.24351 120.42888 32 ft 17 kts 63°
2026-05-06 13:07 30.24408 120.43018 32 ft 19 kts 63°
2026-05-06 13:07 30.24469 120.43157 32 ft 20 kts 64°
2026-05-06 13:07 30.24523 120.43283 32 ft 11 kts 63°
2026-05-06 13:07 30.24508 120.43355 30 ft 10 kts 144°
2026-05-06 13:08 30.24441 120.43397 32 ft 13 kts 152°
2026-05-06 13:08 30.24348 120.43452 32 ft 17 kts 153°
2026-05-06 13:08 30.24242 120.43515 32 ft 18 kts 153°
2026-05-06 13:08 30.24127 120.43583 31 ft 19 kts 153°
2026-05-06 13:09 30.24005 120.43656 30 ft 20 kts 153°
2026-05-06 13:09 30.23874 120.43731 32 ft 22 kts 153°
2026-05-06 13:09 30.23737 120.43811 32 ft 23 kts 153°
2026-05-06 13:09 30.23612 120.43884 32 ft 18 kts 154°
2026-05-06 13:10 30.23534 120.43929 32 ft 9 kts 153°
2026-05-06 13:10 30.23511 120.43942 32 ft 0 kts 153°
2026-05-06 13:10 30.23506 120.43945 32 ft 4 kts 153°
2026-05-06 13:10 30.23469 120.43944 32 ft 5 kts 215°
2026-05-06 13:11 30.23436 120.43891 32 ft 17 kts 242°
2026-05-06 13:11 30.23366 120.43734 32 ft 23 kts 243°
2026-05-06 13:11 30.23289 120.43565 32 ft 24 kts 243°
2026-05-06 13:11 30.23211 120.43387 32 ft 25 kts 243°
2026-05-06 13:12 30.23129 120.43203 32 ft 26 kts 243°
2026-05-06 13:12 30.23044 120.43011 32 ft 27 kts 243°
2026-05-06 13:12 30.22957 120.42814 32 ft 28 kts 243°
2026-05-06 13:12 30.22868 120.42612 32 ft 27 kts 243°
2026-05-06 13:13 30.22781 120.42416 32 ft 28 kts 243°
2026-05-06 13:13 30.22692 120.42214 32 ft 29 kts 243°
2026-05-06 13:13 30.22603 120.42017 32 ft 28 kts 242°
2026-05-06 13:13 30.22515 120.41817 32 ft 26 kts 243°
2026-05-06 13:14 30.22457 120.41689 32 ft 12 kts 238°
2026-05-06 13:14 30.22391 120.41683 32 ft 10 kts 151°
2026-05-06 13:14 30.22336 120.41717 31 ft 8 kts 152°
2026-05-06 13:14 30.22307 120.41735 31 ft 0 kts 152°
2026-05-06 13:15 30.22283 120.41750 31 ft 10 kts 152°
2026-05-06 13:15 30.22229 120.41785 30 ft 5 kts 137°
2026-05-06 13:15 30.22231 120.41816 30 ft 4 kts 72°
2026-05-06 13:16 30.22245 120.41846 30 ft 4 kts 62°
2026-05-06 13:16 30.22276 120.41917 30 ft 30 kts 63°
2026-05-06 13:16 30.22486 120.42391 33 ft 98 kts 63°
2026-05-06 13:16 30.22884 120.43291 34 ft 150 kts 63°
2026-05-06 13:17 30.23418 120.44493 215 ft 179 kts 63°
2026-05-06 13:17 30.23973 120.45808 812 ft 182 kts 74°
2026-05-06 13:17 30.24088 120.47231 1503 ft 177 kts 98°
2026-05-06 13:17 30.23939 120.48663 2024 ft 186 kts 102°
2026-05-06 13:18 30.23725 120.50230 2269 ft 209 kts 102°
2026-05-06 13:18 30.23491 120.51979 2531 ft 232 kts 100°
2026-05-06 13:18 30.23250 120.53924 2884 ft 257 kts 99°
2026-05-06 13:18 30.22965 120.56017 3480 ft 269 kts 108°
2026-05-06 13:19 30.21981 120.57825 4210 ft 270 kts 143°
2026-05-06 13:19 30.20378 120.58964 4991 ft 272 kts 155°
2026-05-06 13:19 30.18676 120.59969 5767 ft 277 kts 158°
2026-05-06 13:19 30.16830 120.60607 6483 ft 279 kts 177°
2026-05-06 13:20 30.14907 120.60404 7179 ft 279 kts 200°
2026-05-06 13:20 30.13229 120.59301 7908 ft 280 kts 224°
2026-05-06 13:20 30.12101 120.57486 8631 ft 282 kts 248°
2026-05-06 13:20 30.11729 120.55268 9345 ft 286 kts 272°
2026-05-06 13:21 30.12205 120.53035 10030 ft 291 kts 297°
2026-05-06 13:21 30.13473 120.51202 10657 ft 299 kts 318°
2026-05-06 13:21 30.15152 120.49634 10851 ft 322 kts 320°
2026-05-06 13:21 30.16979 120.47980 10984 ft 345 kts 321°
2026-05-06 13:22 30.18936 120.46228 11100 ft 366 kts 321°
2026-05-06 13:22 30.20989 120.44389 11433 ft 378 kts 321°
2026-05-06 13:22 30.22369 120.43150 11802 ft 381 kts 320°
2026-05-06 13:22 30.24468 120.41257 12384 ft 385 kts 320°
2026-05-06 13:23 30.27303 120.38691 13161 ft 390 kts 320°
2026-05-06 13:23 30.28721 120.37400 13505 ft 393 kts 320°
2026-05-06 13:23 30.30878 120.35431 14002 ft 397 kts 320°
2026-05-06 13:23 30.33055 120.33444 14510 ft 400 kts 320°
2026-05-06 13:24 30.35246 120.31446 15022 ft 402 kts 319°
2026-05-06 13:24 30.37446 120.29443 15518 ft 404 kts 319°
2026-05-06 13:24 30.39659 120.27426 16005 ft 406 kts 319°
2026-05-06 13:24 30.41883 120.25400 16487 ft 408 kts 319°
2026-05-06 13:25 30.44119 120.23361 16971 ft 410 kts 319°
2026-05-06 13:25 30.46364 120.21311 17432 ft 412 kts 319°
2026-05-06 13:25 30.48622 120.19249 17883 ft 414 kts 319°
2026-05-06 13:25 30.50890 120.17177 18313 ft 416 kts 318°
2026-05-06 13:26 30.53168 120.15092 18683 ft 418 kts 318°
2026-05-06 13:26 30.55455 120.12996 19057 ft 420 kts 318°
2026-05-06 13:26 30.57755 120.10887 19432 ft 422 kts 318°
2026-05-06 13:26 30.60062 120.08769 19789 ft 425 kts 318°
2026-05-06 13:27 30.62384 120.06634 20156 ft 427 kts 318°
2026-05-06 13:27 30.64717 120.04488 20528 ft 429 kts 318°
2026-05-06 13:27 30.67058 120.02336 20898 ft 430 kts 318°
2026-05-06 13:27 30.69412 120.00173 21261 ft 432 kts 318°
2026-05-06 13:28 30.71777 119.98000 21639 ft 434 kts 318°
2026-05-06 13:28 30.74152 119.95818 21985 ft 436 kts 318°
2026-05-06 13:28 30.76535 119.93625 22350 ft 438 kts 317°
2026-05-06 13:28 30.78928 119.91418 22705 ft 440 kts 317°
2026-05-06 13:29 30.81327 119.89202 23036 ft 442 kts 317°
2026-05-06 13:29 30.83740 119.86974 23362 ft 444 kts 317°
2026-05-06 13:29 30.86163 119.84737 23656 ft 445 kts 317°
2026-05-06 13:29 30.88595 119.82492 23939 ft 447 kts 317°
2026-05-06 13:30 30.91037 119.80240 24211 ft 449 kts 317°
2026-05-06 13:30 30.93489 119.77975 24481 ft 450 kts 317°
2026-05-06 13:30 30.95943 119.75701 24756 ft 452 kts 317°
2026-05-06 13:30 30.98405 119.73415 25027 ft 453 kts 317°
2026-05-06 13:31 31.00872 119.71125 25290 ft 454 kts 317°
2026-05-06 13:31 31.03350 119.68828 25545 ft 456 kts 317°
2026-05-06 13:31 31.05840 119.66522 25806 ft 457 kts 317°
2026-05-06 13:31 31.08333 119.64211 26077 ft 458 kts 317°
2026-05-06 13:32 31.10832 119.61893 26337 ft 459 kts 317°
2026-05-06 13:32 31.13336 119.59566 26581 ft 461 kts 317°
2026-05-06 13:32 31.15846 119.57226 26842 ft 462 kts 317°
2026-05-06 13:32 31.18355 119.54884 27212 ft 461 kts 317°
2026-05-06 13:33 31.20855 119.52553 27586 ft 460 kts 317°
2026-05-06 13:33 31.23380 119.50263 27925 ft 460 kts 319°
2026-05-06 13:33 31.25940 119.48020 28280 ft 459 kts 319°
2026-05-06 13:33 31.28515 119.45813 28652 ft 459 kts 320°
2026-05-06 13:34 31.31094 119.43624 29044 ft 457 kts 320°
2026-05-06 13:34 31.33663 119.41440 29427 ft 456 kts 320°
2026-05-06 13:34 31.36215 119.39248 29818 ft 455 kts 319°
2026-05-06 13:34 31.38754 119.37046 30192 ft 453 kts 319°
2026-05-06 13:35 31.41278 119.34846 30546 ft 451 kts 319°
2026-05-06 13:35 31.43785 119.32650 30906 ft 449 kts 319°
2026-05-06 13:35 31.46279 119.30460 31260 ft 447 kts 319°
2026-05-06 13:35 31.48763 119.28282 31617 ft 445 kts 319°
2026-05-06 13:36 31.51237 119.26115 31984 ft 443 kts 319°
2026-05-06 13:36 31.53666 119.23984 32335 ft 441 kts 319°
2026-05-06 13:36 31.56114 119.21832 32675 ft 439 kts 318°
2026-05-06 13:36 31.58550 119.19686 33014 ft 438 kts 318°
2026-05-06 13:37 31.60973 119.17541 33376 ft 436 kts 318°
2026-05-06 13:37 31.63386 119.15399 33723 ft 434 kts 318°
2026-05-06 13:37 31.65765 119.13233 33958 ft 432 kts 316°
2026-05-06 13:38 31.70327 119.08616 34008 ft 434 kts 313°
2026-05-06 13:38 31.74812 119.03857 34016 ft 435 kts 313°
2026-05-06 13:39 31.79336 118.99029 34018 ft 441 kts 309°
2026-05-06 13:39 31.82684 118.93099 34020 ft 434 kts 290°
2026-05-06 13:40 31.84239 118.86302 34021 ft 430 kts 275°
2026-05-06 13:40 31.84006 118.79312 34017 ft 429 kts 264°
2026-05-06 13:41 31.83370 118.72334 34011 ft 429 kts 264°
2026-05-06 13:41 31.82751 118.65352 34016 ft 429 kts 264°
2026-05-06 13:42 31.82122 118.58362 33991 ft 430 kts 264°
2026-05-06 13:42 31.81482 118.51373 33969 ft 430 kts 264°
2026-05-06 13:43 31.80831 118.44371 33970 ft 431 kts 264°
2026-05-06 13:43 31.80177 118.37368 33973 ft 431 kts 264°
2026-05-06 13:44 31.79526 118.30358 33977 ft 432 kts 265°
2026-05-06 13:44 31.79360 118.23290 33973 ft 433 kts 268°
2026-05-06 13:45 31.79233 118.16209 33973 ft 433 kts 268°
2026-05-06 13:45 31.79684 118.05643 33985 ft 437 kts 287°
2026-05-06 13:46 31.82500 117.99262 33976 ft 441 kts 296°
2026-05-06 13:46 31.85522 117.93022 33974 ft 442 kts 296°
2026-05-06 13:47 31.88570 117.86728 33973 ft 443 kts 296°
2026-05-06 13:47 31.91605 117.80417 33972 ft 443 kts 296°
2026-05-06 13:48 31.94636 117.74091 33974 ft 444 kts 296°
2026-05-06 13:48 31.97658 117.67756 33974 ft 444 kts 296°
2026-05-06 13:49 32.00675 117.61406 33978 ft 444 kts 296°
2026-05-06 13:49 32.03699 117.55057 33980 ft 445 kts 296°
2026-05-06 13:50 32.06729 117.48700 33985 ft 445 kts 296°
2026-05-06 13:50 32.09761 117.42337 33982 ft 445 kts 296°
2026-05-06 13:51 32.12790 117.35963 33999 ft 445 kts 296°
2026-05-06 13:51 32.15802 117.29584 33994 ft 445 kts 296°
2026-05-06 13:52 32.18808 117.23210 33986 ft 445 kts 296°
2026-05-06 13:52 32.21822 117.16831 34003 ft 444 kts 295°
2026-05-06 13:53 32.24803 117.10489 33987 ft 445 kts 295°
2026-05-06 13:53 32.27797 117.04101 33979 ft 445 kts 295°
2026-05-06 13:54 32.30796 116.97706 33962 ft 445 kts 295°
2026-05-06 13:54 32.33803 116.91306 33959 ft 445 kts 295°
2026-05-06 13:55 32.36803 116.84897 33969 ft 445 kts 295°
2026-05-06 13:55 32.39798 116.78488 33972 ft 445 kts 295°
2026-05-06 13:56 32.42784 116.72072 33975 ft 445 kts 295°
2026-05-06 13:56 32.45764 116.65654 33971 ft 445 kts 295°
2026-05-06 13:57 32.48743 116.59238 33969 ft 444 kts 295°
2026-05-06 13:57 32.51716 116.52822 33990 ft 444 kts 295°
2026-05-06 13:58 32.54676 116.46413 33983 ft 443 kts 295°
2026-05-06 13:58 32.57631 116.40020 33988 ft 442 kts 296°
2026-05-06 13:59 32.60567 116.33668 33981 ft 442 kts 296°
2026-05-06 13:59 32.63514 116.27263 33974 ft 442 kts 296°
2026-05-06 14:00 32.66463 116.20850 33954 ft 443 kts 296°
2026-05-06 14:00 32.69414 116.14406 33948 ft 445 kts 296°
2026-05-06 14:01 32.72368 116.07943 33946 ft 446 kts 296°
2026-05-06 14:01 32.75325 116.01469 33946 ft 446 kts 295°
2026-05-06 14:02 32.78280 115.94985 33963 ft 446 kts 295°
2026-05-06 14:02 32.81238 115.88496 33960 ft 447 kts 295°
2026-05-06 14:03 32.84193 115.81996 33963 ft 447 kts 295°
2026-05-06 14:03 32.87139 115.75490 33961 ft 447 kts 296°
2026-05-06 14:04 32.90863 115.69530 33961 ft 452 kts 308°
2026-05-06 14:04 32.95013 115.63909 33955 ft 452 kts 308°
2026-05-06 14:05 32.99143 115.58274 33962 ft 451 kts 308°
2026-05-06 14:05 33.03256 115.52651 33985 ft 449 kts 307°
2026-05-06 14:06 33.06666 115.47993 33981 ft 448 kts 307°
2026-05-06 14:06 33.11441 115.41452 33976 ft 447 kts 307°
2026-05-06 14:07 33.15515 115.35864 33969 ft 446 kts 307°
2026-05-06 14:07 33.19587 115.30273 33968 ft 446 kts 307°
2026-05-06 14:08 33.22957 115.25633 33969 ft 445 kts 307°
2026-05-06 14:08 33.27009 115.20052 33964 ft 444 kts 307°
2026-05-06 14:09 33.31055 115.14479 33951 ft 444 kts 307°
2026-05-06 14:09 33.35096 115.08897 33968 ft 444 kts 307°
2026-05-06 14:10 33.39133 115.03305 33945 ft 444 kts 307°
2026-05-06 14:10 33.43172 114.97702 33945 ft 445 kts 306°
2026-05-06 14:11 33.47213 114.92084 33943 ft 445 kts 307°
2026-05-06 14:11 33.51256 114.86455 33935 ft 445 kts 306°
2026-05-06 14:12 33.55298 114.80833 33941 ft 445 kts 306°
2026-05-06 14:12 33.59334 114.75195 33936 ft 446 kts 306°
2026-05-06 14:13 33.63381 114.69557 33942 ft 446 kts 307°
2026-05-06 14:13 33.67630 114.64188 33941 ft 451 kts 317°
2026-05-06 14:14 33.72590 114.59539 33957 ft 452 kts 317°
2026-05-06 14:14 33.77531 114.54884 33959 ft 451 kts 316°
2026-05-06 14:15 33.82469 114.50218 33959 ft 451 kts 316°
2026-05-06 14:15 33.87406 114.45558 33960 ft 451 kts 316°
2026-05-06 14:16 33.92340 114.40889 33964 ft 451 kts 316°
2026-05-06 14:16 33.97266 114.36216 33974 ft 451 kts 316°
2026-05-06 14:17 34.02189 114.31536 33973 ft 451 kts 316°
2026-05-06 14:17 34.07115 114.26856 33976 ft 451 kts 316°
2026-05-06 14:18 34.12042 114.22174 33990 ft 451 kts 316°
2026-05-06 14:18 34.16970 114.17490 33986 ft 451 kts 316°
2026-05-06 14:19 34.21886 114.12797 34004 ft 450 kts 316°
2026-05-06 14:19 34.26797 114.08091 33999 ft 450 kts 316°
2026-05-06 14:20 34.31697 114.03393 34019 ft 446 kts 316°
2026-05-06 14:20 34.36504 113.98793 34006 ft 439 kts 316°
2026-05-06 14:21 34.41310 113.94168 34015 ft 442 kts 316°
2026-05-06 14:21 34.46100 113.89560 34049 ft 443 kts 316°
2026-05-06 14:22 34.51053 113.85098 34047 ft 450 kts 324°
2026-05-06 14:22 34.53923 113.83504 34046 ft 459 kts 335°
2026-05-06 14:22 34.57012 113.82442 34046 ft 463 kts 339°
2026-05-06 14:23 34.63238 113.80442 34059 ft 463 kts 338°
2026-05-06 14:23 34.69460 113.78427 34055 ft 463 kts 338°
2026-05-06 14:24 34.75679 113.76404 34058 ft 463 kts 338°
2026-05-06 14:24 34.81897 113.74380 34072 ft 463 kts 338°
2026-05-06 14:25 34.88097 113.72284 34087 ft 461 kts 335°
2026-05-06 14:25 34.94123 113.69725 34070 ft 457 kts 332°
2026-05-06 14:26 35.00059 113.66938 34066 ft 457 kts 332°
2026-05-06 14:26 35.06017 113.64199 34055 ft 458 kts 333°
2026-05-06 14:27 35.11972 113.61582 34086 ft 458 kts 333°
2026-05-06 14:27 35.17965 113.58972 34083 ft 456 kts 333°
2026-05-06 14:28 35.23930 113.56342 34081 ft 455 kts 333°
2026-05-06 14:28 35.29879 113.53701 34076 ft 455 kts 333°
2026-05-06 14:29 35.35819 113.51046 34098 ft 454 kts 332°
2026-05-06 14:29 35.41753 113.48395 34099 ft 453 kts 332°
2026-05-06 14:30 35.47677 113.45758 34101 ft 452 kts 332°
2026-05-06 14:30 35.53597 113.43141 34098 ft 451 kts 333°
2026-05-06 14:31 35.59502 113.40526 34115 ft 451 kts 332°
2026-05-06 14:31 35.65406 113.37905 34134 ft 451 kts 332°
2026-05-06 14:32 35.71298 113.35282 34131 ft 450 kts 332°
2026-05-06 14:32 35.77187 113.32655 34129 ft 450 kts 332°
2026-05-06 14:33 35.83067 113.30021 34124 ft 449 kts 332°
2026-05-06 14:33 35.88945 113.27390 34146 ft 450 kts 331°
2026-05-06 14:34 35.94832 113.24770 34131 ft 450 kts 331°
2026-05-06 14:34 36.00728 113.22148 34129 ft 451 kts 331°
2026-05-06 14:35 36.06625 113.19514 34127 ft 451 kts 331°
2026-05-06 14:35 36.12474 113.16884 34156 ft 450 kts 331°
2026-05-06 14:36 36.18406 113.14220 34143 ft 450 kts 331°
2026-05-06 14:36 36.24277 113.11646 34136 ft 455 kts 335°
2026-05-06 14:37 36.30424 113.09652 34149 ft 457 kts 336°
2026-05-06 14:37 36.36562 113.07664 34168 ft 455 kts 335°
2026-05-06 14:38 36.42686 113.05661 34157 ft 455 kts 335°
2026-05-06 14:38 36.48809 113.03662 34148 ft 455 kts 335°
2026-05-06 14:39 36.54925 113.01656 34145 ft 455 kts 335°
2026-05-06 14:39 36.61048 112.99651 34142 ft 455 kts 335°
2026-05-06 14:40 36.67172 112.97646 34142 ft 455 kts 335°
2026-05-06 14:40 36.73293 112.95634 34140 ft 455 kts 335°
2026-05-06 14:41 36.79409 112.93623 34145 ft 454 kts 335°
2026-05-06 14:41 36.85522 112.91610 34180 ft 454 kts 335°
2026-05-06 14:42 36.91631 112.89598 34164 ft 454 kts 335°
2026-05-06 14:42 36.97726 112.87577 34160 ft 453 kts 335°
2026-05-06 14:43 37.03815 112.85557 34164 ft 453 kts 335°
2026-05-06 14:43 37.09908 112.83542 34185 ft 453 kts 335°
2026-05-06 14:44 37.15995 112.81538 34180 ft 452 kts 335°
2026-05-06 14:45 37.25110 112.78523 34178 ft 451 kts 335°
2026-05-06 14:45 37.31173 112.76513 34185 ft 450 kts 334°
2026-05-06 14:46 37.37200 112.74515 34163 ft 445 kts 334°
2026-05-06 14:46 37.43142 112.72531 34156 ft 445 kts 334°
2026-05-06 14:47 37.49118 112.70529 34161 ft 445 kts 334°
2026-05-06 14:47 37.55099 112.68534 34164 ft 444 kts 334°
2026-05-06 14:48 37.61074 112.66532 34203 ft 444 kts 334°
2026-05-06 14:48 37.67036 112.64531 34200 ft 443 kts 334°
2026-05-06 14:49 37.72995 112.62536 34194 ft 443 kts 334°
2026-05-06 14:49 37.79017 112.60718 34189 ft 448 kts 337°
2026-05-06 14:50 37.85188 112.59315 34210 ft 452 kts 339°
2026-05-06 14:50 37.91384 112.57992 34198 ft 451 kts 339°
2026-05-06 14:51 37.97562 112.56597 34193 ft 451 kts 338°
2026-05-06 14:51 38.03724 112.55150 34238 ft 450 kts 338°
2026-05-06 14:52 38.09887 112.53685 34226 ft 451 kts 338°
2026-05-06 14:52 38.16048 112.52230 34215 ft 450 kts 338°
2026-05-06 14:53 38.22209 112.50777 34213 ft 450 kts 338°
2026-05-06 14:53 38.28375 112.49326 34230 ft 451 kts 338°
2026-05-06 14:54 38.34547 112.47877 34219 ft 451 kts 338°
2026-05-06 14:54 38.40720 112.46422 34210 ft 451 kts 338°
2026-05-06 14:55 38.45847 112.45205 34239 ft 451 kts 338°
2026-05-06 14:55 38.53035 112.43478 34242 ft 448 kts 338°
2026-05-06 14:56 38.58121 112.42252 34233 ft 448 kts 338°
2026-05-06 14:56 38.64243 112.40775 34238 ft 448 kts 338°
2026-05-06 14:57 38.70371 112.39306 34236 ft 448 kts 338°
2026-05-06 14:57 38.76489 112.37826 34267 ft 447 kts 337°
2026-05-06 14:57 38.79527 112.37094 34116 ft 442 kts 337°
2026-05-06 14:58 38.82537 112.36373 33758 ft 439 kts 337°
2026-05-06 14:58 38.86506 112.35412 33233 ft 439 kts 338°
2026-05-06 14:58 38.88535 112.34917 32970 ft 439 kts 338°
2026-05-06 14:58 38.91503 112.34190 32590 ft 441 kts 338°
2026-05-06 14:59 38.94522 112.33451 32219 ft 443 kts 338°
2026-05-06 14:59 38.97554 112.32712 31842 ft 444 kts 338°
2026-05-06 14:59 39.00599 112.31973 31485 ft 446 kts 338°
2026-05-06 14:59 39.03656 112.31230 31119 ft 448 kts 339°
2026-05-06 15:00 39.06726 112.30481 30759 ft 450 kts 338°
2026-05-06 15:00 39.09805 112.29730 30407 ft 451 kts 339°
2026-05-06 15:00 39.12897 112.28977 30019 ft 453 kts 339°
2026-05-06 15:00 39.15998 112.28223 29661 ft 454 kts 339°
2026-05-06 15:01 39.19104 112.27470 29256 ft 454 kts 339°
2026-05-06 15:01 39.22203 112.26714 28849 ft 454 kts 339°
2026-05-06 15:01 39.25309 112.25956 28454 ft 454 kts 340°
2026-05-06 15:01 39.28417 112.25195 28057 ft 455 kts 340°
2026-05-06 15:02 39.31524 112.24431 27668 ft 455 kts 340°
2026-05-06 15:02 39.34638 112.23663 27276 ft 455 kts 340°
2026-05-06 15:02 39.37757 112.22892 26904 ft 457 kts 340°
2026-05-06 15:02 39.40874 112.22122 26563 ft 456 kts 341°
2026-05-06 15:03 39.43996 112.21353 26195 ft 457 kts 341°
2026-05-06 15:03 39.47119 112.20586 25828 ft 457 kts 341°
2026-05-06 15:03 39.50248 112.19818 25466 ft 458 kts 341°
2026-05-06 15:03 39.53380 112.19058 25123 ft 459 kts 342°
2026-05-06 15:04 39.56520 112.18307 24765 ft 460 kts 342°
2026-05-06 15:04 39.59669 112.17558 24419 ft 460 kts 342°
2026-05-06 15:04 39.62818 112.16809 24107 ft 459 kts 343°
2026-05-06 15:04 39.65947 112.16065 23769 ft 457 kts 343°
2026-05-06 15:05 39.69065 112.15320 23352 ft 454 kts 343°
2026-05-06 15:05 39.72206 112.14803 22937 ft 459 kts 353°
2026-05-06 15:05 39.75403 112.14904 22571 ft 459 kts 355°
2026-05-06 15:05 39.78587 112.15050 22254 ft 457 kts 356°
2026-05-06 15:06 39.81755 112.15210 21958 ft 454 kts 356°
2026-05-06 15:06 39.84904 112.15380 21649 ft 452 kts 356°
2026-05-06 15:06 39.87994 112.15547 21345 ft 449 kts 356°
2026-05-06 15:06 39.91106 112.15712 21044 ft 447 kts 356°
2026-05-06 15:07 39.94205 112.15868 20759 ft 444 kts 356°
2026-05-06 15:07 39.97283 112.16019 20456 ft 442 kts 356°
2026-05-06 15:07 40.00388 112.16171 20157 ft 439 kts 356°
2026-05-06 15:07 40.03434 112.16318 19884 ft 436 kts 356°
2026-05-06 15:08 40.06460 112.16464 19594 ft 433 kts 356°
2026-05-06 15:08 40.09462 112.16611 19302 ft 431 kts 356°
2026-05-06 15:08 40.12409 112.16758 19025 ft 429 kts 356°
2026-05-06 15:08 40.15420 112.16908 18739 ft 426 kts 356°
2026-05-06 15:09 40.18373 112.17055 18459 ft 424 kts 356°
2026-05-06 15:09 40.21275 112.17199 18135 ft 422 kts 356°
2026-05-06 15:09 40.24237 112.17348 17832 ft 420 kts 357°
2026-05-06 15:09 40.27108 112.17490 17522 ft 417 kts 357°
2026-05-06 15:10 40.30004 112.17634 17207 ft 415 kts 357°
2026-05-06 15:10 40.32884 112.17778 16895 ft 413 kts 357°
2026-05-06 15:10 40.35748 112.17920 16590 ft 411 kts 357°
2026-05-06 15:10 40.38600 112.18064 16284 ft 409 kts 358°
2026-05-06 15:11 40.41439 112.18209 15980 ft 407 kts 358°
2026-05-06 15:11 40.44264 112.18353 15701 ft 404 kts 358°
2026-05-06 15:11 40.47058 112.18493 15400 ft 400 kts 358°
2026-05-06 15:11 40.49832 112.18632 15106 ft 398 kts 358°
2026-05-06 15:12 40.52589 112.18770 14816 ft 396 kts 358°
2026-05-06 15:12 40.55332 112.18904 14520 ft 393 kts 358°
2026-05-06 15:12 40.58015 112.19039 14236 ft 379 kts 358°
2026-05-06 15:12 40.60609 112.19173 13941 ft 367 kts 358°
2026-05-06 15:13 40.63119 112.19304 13625 ft 356 kts 359°
2026-05-06 15:13 40.65556 112.19430 13303 ft 345 kts 359°
2026-05-06 15:13 40.67927 112.19552 12986 ft 336 kts 359°
2026-05-06 15:13 40.70226 112.19669 12674 ft 326 kts 359°
2026-05-06 15:14 40.72464 112.19783 12364 ft 318 kts 359°
2026-05-06 15:14 40.74647 112.19892 12057 ft 310 kts 359°
2026-05-06 15:14 40.76782 112.19997 11755 ft 304 kts 360°
2026-05-06 15:14 40.78872 112.20101 11453 ft 297 kts
2026-05-06 15:15 40.80919 112.20206 11157 ft 292 kts
2026-05-06 15:15 40.82922 112.20311 10855 ft 282 kts
2026-05-06 15:15 40.84828 112.20408 10572 ft 265 kts
2026-05-06 15:15 40.86622 112.20497 10291 ft 251 kts
2026-05-06 15:16 40.88328 112.20582 9925 ft 240 kts
2026-05-06 15:16 40.89944 112.20422 9512 ft 229 kts 344°
2026-05-06 15:16 40.91350 112.19436 8935 ft 232 kts 321°
2026-05-06 15:16 40.92278 112.17740 8697 ft 227 kts 297°
2026-05-06 15:17 40.92588 112.15724 8469 ft 225 kts 275°
2026-05-06 15:17 40.92279 112.13697 8196 ft 227 kts 259°
2026-05-06 15:17 40.91809 112.11693 7888 ft 229 kts 260°
2026-05-06 15:17 40.91344 112.09701 7576 ft 224 kts 260°
2026-05-06 15:18 40.90891 112.07760 7281 ft 217 kts 260°
2026-05-06 15:18 40.90459 112.05918 7019 ft 203 kts 261°
2026-05-06 15:18 40.90055 112.04177 6701 ft 196 kts 259°
2026-05-06 15:18 40.89659 112.02475 6386 ft 192 kts 261°
2026-05-06 15:19 40.89270 112.00806 6092 ft 186 kts 260°
2026-05-06 15:19 40.88898 111.99221 5864 ft 173 kts 261°
2026-05-06 15:19 40.88555 111.97760 5625 ft 160 kts 262°
2026-05-06 15:19 40.88235 111.96386 5449 ft 155 kts 259°
2026-05-06 15:20 40.87920 111.95032 5321 ft 153 kts 259°
2026-05-06 15:20 40.87607 111.93689 5104 ft 153 kts 259°
2026-05-06 15:20 40.87294 111.92355 4871 ft 151 kts 258°
2026-05-06 15:20 40.86986 111.91040 4633 ft 150 kts 258°
2026-05-06 15:21 40.86680 111.89735 4418 ft 148 kts 258°
2026-05-06 15:21 40.86380 111.88430 4202 ft 149 kts 258°
2026-05-06 15:21 40.86061 111.87130 3987 ft 149 kts 257°
2026-05-06 15:21 40.85758 111.85825 3796 ft 149 kts 257°
2026-05-06 15:22 40.85457 111.84520 3585 ft 149 kts 254°
2026-05-06 15:22 40.85166 111.83287 3530 ft 127 kts 255°
2026-05-06 15:22 40.84951 111.82370 3524 ft 80 kts 253°
2026-05-06 15:22 40.84830 111.81854 3526 ft 48 kts 252°
2026-05-06 15:23 40.84757 111.81521 3527 ft 31 kts 259°
2026-05-06 15:23 40.84764 111.81332 3528 ft 9 kts 279°
2026-05-06 15:23 40.84774 111.81271 3530 ft 5 kts 284°
2026-05-06 15:23 40.84778 111.81248 3531 ft 1 kts 282°
2026-05-06 15:24 40.84778 111.81246 3531 ft 2 kts 282°
2026-05-06 15:24 40.84796 111.81180 3532 ft 9 kts 307°
2026-05-06 15:24 40.84869 111.81134 3534 ft 16 kts 341°
2026-05-06 15:24 40.84992 111.81084 3534 ft 19 kts 343°
2026-05-06 15:25 40.85104 111.81069 3534 ft 14 kts 44°
2026-05-06 15:25 40.85140 111.81197 3534 ft 19 kts 72°
2026-05-06 15:25 40.85189 111.81399 3534 ft 20 kts 72°
2026-05-06 15:25 40.85220 111.81531 3534 ft 9 kts 72°
2026-05-06 15:26 40.85270 111.81556 3534 ft 9 kts 343°
2026-05-06 15:26 40.85297 111.81545 3534 ft 2 kts 343°
2026-05-06 15:26 40.85302 111.81543 3534 ft 0 kts 343°